VNREDSAT 1 (39160 NORAD) Tracking and Keplerian Element Data

This shows tracking and keplerian element data for the satellite.

Feedback or suggestion? Click here.




ElementValue
Catalog39160
NameVNREDSAT 1
Epoch Orbit62739
Epoch Day35.14723079
Epoch Year2025
RAAN100.8903
Inclination97.968
Eccentricity0.0001079
Argument of Perigee95.2745
Mean Anonmoly264.8581
Mean Motion14.64574253
Decay Rate1.41E-05
L11 39160U 13021B 25035.14723079 .00001410 00000+0 27424-3 0 9991
L22 39160 97.9680 100.8903 0001079 95.2745 264.8581 14.64574253627392



Live tracking and technical data element details for VNREDSAT 1 (NORAD 39160). VNREDSAT 1 can be tracked NOW for your location showing map with azimuth and elevation plus other details from your city location.







IsCatalogInMostPopularTable: catalog: 39160, numindb: 349
Update: records affected: 1



GetName: 39160 VNREDSAT 1

Hit Count: updated at: Thu, 15 May 2025 10:12:08 GMT